Niagara Falls, NY

9:57 AM EDT on March 27, 2017 (GMT -0400)
Niagara Falls International

Weather History for KIAG - July, 2013

Change the Weather History Date:

Wednesday, July 24, 2013

  Actual Average Record
Temperature  
Mean Temperature 62 °F -  
Max Temperature 69 °F 78 °F 91 °F (2001)
Min Temperature 55 °F 59 °F 51 °F (2000)
Degree Days  
Heating Degree Days 2    
Growing Degree Days 12 (Base 50)    
Moisture  
Dew Point 49 °F    
Average Humidity 65    
Maximum Humidity 84    
Minimum Humidity 47    
Precipitation  
Precipitation 0.15 in - - ()
Sea Level Pressure  
Sea Level Pressure 29.91 in    
Wind  
Wind Speed 10 mph (NNW)    
Max Wind Speed 16 mph    
Max Gust Speed 22 mph    
Visibility 10 miles    
Events      
Averages and records for this station are not official NWS values.
T = Trace of Precipitation, MM = Missing Value Source: NWS Daily Summary

Daily Weather History Graph

Daily Weather History Graph

Search for Another Location

Airport or City:

Trip Planner

Search our weather history database for the weather conditions in past years. The results will help you decide how hot, cold, wet, or windy it might be!

Date:

Astronomy

Jul. 24, 2013 Rise Set
Actual Time 5:58 AM EDT 8:45 PM EDT
Civil Twilight 5:25 AM EDT 9:18 PM EDT
Nautical Twilight 4:43 AM EDT 10:00 PM EDT
Astronomical Twilight 3:54 AM EDT 10:48 PM EDT
Moon 9:44 PM EDT (7/24) 8:21 AM EDT (7/24)
Length of Visible Light 15h 53m
Length of Day
14h 47m
Waning Gibbous, 95% of the Moon is Illuminated
Jul 24
Waning Gibbous
Jul 29
Last Quarter
Aug 6
New
Aug 14
First Quarter
Aug 20
Full

Hourly Weather History & Observations

Time (EDT) Temp. Dew Point Humidity Pressure Visibility Wind Dir Wind Speed Gust Speed Precip Events Conditions
12:53 AM 62.1 °F 54.0 °F 75% 29.74 in 10.0 mi WNW 10.4 mph - N/A   Scattered Clouds
1:53 AM 61.0 °F 55.0 °F 81% 29.75 in 10.0 mi WNW 11.5 mph - N/A   Scattered Clouds
2:05 AM 60.8 °F 55.4 °F 82% 29.76 in 10.0 mi WNW 11.5 mph - N/A   Mostly Cloudy
2:53 AM 62.1 °F 55.0 °F 78% 29.77 in 10.0 mi WNW 12.7 mph - N/A   Overcast
3:03 AM 62.6 °F 53.6 °F 72% 29.78 in 10.0 mi NW 12.7 mph 21.9 mph N/A   Overcast
3:53 AM 61.0 °F 53.1 °F 75% 29.79 in 10.0 mi NW 13.8 mph - N/A   Overcast
4:53 AM 60.1 °F 48.9 °F 67% 29.81 in 10.0 mi NW 16.1 mph 21.9 mph N/A   Overcast
5:53 AM 59.0 °F 48.0 °F 67% 29.83 in 10.0 mi North 11.5 mph 20.7 mph N/A   Overcast
6:53 AM 57.9 °F 46.9 °F 67% 29.85 in 10.0 mi NNW 13.8 mph - N/A   Overcast
7:00 AM 57.2 °F 46.4 °F 67% 29.86 in 10.0 mi NNW 10.4 mph - N/A   Mostly Cloudy
7:53 AM 57.9 °F 46.9 °F 67% 29.88 in 10.0 mi NNW 9.2 mph - N/A   Mostly Cloudy
8:53 AM 57.9 °F 46.9 °F 67% 29.90 in 10.0 mi North 13.8 mph 20.7 mph N/A   Mostly Cloudy
9:53 AM 61.0 °F 48.9 °F 64% 29.93 in 10.0 mi North 11.5 mph - N/A   Mostly Cloudy
10:02 AM 60.8 °F 48.2 °F 63% 29.93 in 10.0 mi North 13.8 mph 20.7 mph N/A   Mostly Cloudy
10:53 AM 60.1 °F 46.9 °F 62% 29.95 in 10.0 mi NNW 13.8 mph - N/A   Mostly Cloudy
11:53 AM 62.1 °F 46.9 °F 58% 29.97 in 10.0 mi NNW 11.5 mph 18.4 mph N/A   Mostly Cloudy
12:53 PM 62.1 °F 46.9 °F 58% 29.98 in 10.0 mi North 11.5 mph - N/A   Mostly Cloudy
1:53 PM 64.9 °F 46.0 °F 50% 29.98 in 10.0 mi NNE 4.6 mph - N/A   Scattered Clouds
2:53 PM 64.9 °F 46.0 °F 50% 29.99 in 10.0 mi NNW 9.2 mph - N/A   Scattered Clouds
3:53 PM 66.0 °F 46.9 °F 50% 29.99 in 10.0 mi NNE 11.5 mph 17.3 mph N/A   Partly Cloudy
4:53 PM 66.9 °F 46.0 °F 47% 29.99 in 10.0 mi North 10.4 mph - N/A   Scattered Clouds
5:53 PM 68.0 °F 46.9 °F 47% 29.99 in 10.0 mi NNE 8.1 mph - N/A   Scattered Clouds
6:53 PM 66.9 °F 46.0 °F 47% 29.99 in 10.0 mi North 5.8 mph - N/A   Scattered Clouds
7:53 PM 66.9 °F 46.9 °F 49% 30.00 in 10.0 mi Calm Calm - N/A   Scattered Clouds
8:53 PM 64.0 °F 48.0 °F 56% 30.01 in 10.0 mi North 3.5 mph - N/A   Partly Cloudy
9:53 PM 60.1 °F 52.0 °F 75% 30.02 in 10.0 mi Calm Calm - N/A   Partly Cloudy
10:53 PM 57.9 °F 52.0 °F 81% 30.04 in 10.0 mi Calm Calm - N/A   Partly Cloudy
11:53 PM 55.9 °F 51.1 °F 84% 30.05 in 10.0 mi Calm Calm - N/A   Clear